Findlay, OH

2:37 AM EDT on September 15, 2019 (GMT -0400)
Findlay

Weather History for KFDY - July, 2019

Change the Weather History Date:

Tuesday, July 23, 2019

  Actual Average Record
Temperature  
Mean Temperature 69 °F -  
Max Temperature 80 °F 82 °F 96 °F (2010)
Min Temperature 59 °F 62 °F 53 °F (1954)
Cooling Degree Days 4    
Growing Degree Days 19 (Base 50)    
Moisture  
Dew Point 54 °F    
Average Humidity 61    
Maximum Humidity 90    
Minimum Humidity 34    
Precipitation  
Precipitation 0.01 in - - ()
Sea Level Pressure  
Sea Level Pressure 30.00 in    
Wind  
Wind Speed 6 mph (NNW)    
Max Wind Speed 17 mph    
Max Gust Speed 24 mph    
Visibility 10 miles    
Events      
Averages and records for this station are not official NWS values.
T = Trace of Precipitation, MM = Missing Value Source: NWS Daily Summary

Daily Weather History Graph

Daily Weather History Graph

Search for Another Location

Airport or City:

Astronomy

Jul. 23, 2019 Rise Set
Actual Time 6:22 AM EDT 8:59 PM EDT
Civil Twilight 5:50 AM EDT 9:31 PM EDT
Nautical Twilight 5:10 AM EDT 10:11 PM EDT
Astronomical Twilight 4:25 AM EDT 10:55 PM EDT
Moon 12:18 AM EDT (7/23) 12:37 PM EDT (7/23)
Length of Visible Light 15h 41m
Length of Day
14h 37m
Waning Gibbous, 63% of the Moon is Illuminated
Jul 23
Waning Gibbous
Jul 24
Last Quarter
Jul 31
New
Aug 7
First Quarter
Aug 15
Full

Hourly Weather History & Observations

Time (EDT) Temp. Dew Point Humidity Pressure Visibility Wind Dir Wind Speed Gust Speed Precip Events Conditions
12:53 AM 66.0 °F 57.9 °F 75% 29.98 in 10.0 mi NNW 3.5 mph - N/A   Clear
1:53 AM 64.0 °F 57.9 °F 80% 29.99 in 10.0 mi NNW 4.6 mph - N/A   Clear
2:53 AM 63.0 °F 57.9 °F 84% 29.99 in 10.0 mi NW 4.6 mph - N/A   Clear
3:53 AM 61.0 °F 57.0 °F 87% 29.99 in 10.0 mi Calm Calm - N/A   Clear
4:53 AM 62.1 °F 57.0 °F 84% 29.99 in 10.0 mi NNW 5.8 mph - N/A   Clear
5:53 AM 59.0 °F 55.9 °F 90% 30.00 in 10.0 mi WNW 5.8 mph - N/A   Clear
6:53 AM 61.0 °F 55.9 °F 83% 30.01 in 10.0 mi NW 4.6 mph - N/A   Clear
7:53 AM 64.0 °F 57.0 °F 78% 30.01 in 10.0 mi NNW 4.6 mph - N/A   Clear
8:53 AM 66.9 °F 55.9 °F 68% 30.02 in 10.0 mi NNW 8.1 mph - N/A   Clear
9:53 AM 71.1 °F 57.0 °F 61% 30.03 in 10.0 mi NW 5.8 mph - N/A   Clear
10:53 AM 73.9 °F 55.0 °F 52% 30.02 in 10.0 mi NW 10.4 mph - N/A   Clear
11:53 AM 75.9 °F 54.0 °F 46% 30.02 in 10.0 mi NW 11.5 mph - N/A   Clear
12:53 PM 75.9 °F 52.0 °F 43% 30.01 in 10.0 mi WNW 15.0 mph 24.2 mph N/A   Partly Cloudy
1:53 PM 78.1 °F 48.9 °F 36% 30.01 in 10.0 mi North 11.5 mph - N/A   Clear
2:53 PM 79.0 °F 50.0 °F 36% 30.00 in 10.0 mi NW 12.7 mph - N/A   Clear
3:53 PM 79.0 °F 48.0 °F 34% 29.99 in 10.0 mi North 10.4 mph 16.1 mph N/A   Clear
4:53 PM 79.0 °F 50.0 °F 36% 29.99 in 10.0 mi North 11.5 mph - N/A   Partly Cloudy
5:53 PM 79.0 °F 48.9 °F 35% 29.99 in 10.0 mi NNW 8.1 mph - N/A   Clear
6:53 PM 78.1 °F 51.1 °F 39% 29.98 in 10.0 mi NW 10.4 mph - N/A   Clear
7:53 PM 77.0 °F 53.1 °F 43% 29.98 in 10.0 mi NNW 5.8 mph - N/A   Clear
8:53 PM 73.9 °F 55.0 °F 52% 29.99 in 10.0 mi NW 3.5 mph - N/A   Scattered Clouds
9:53 PM 66.9 °F 55.9 °F 68% 30.02 in 10.0 mi NNE 17.3 mph - N/A   Mostly Cloudy
10:53 PM 63.0 °F 55.9 °F 78% 30.02 in 10.0 mi SSE 5.8 mph - 0.01 in   Partly Cloudy
11:53 PM 64.0 °F 57.0 °F 78% 30.02 in 10.0 mi Calm Calm - N/A   Clear